Details for Air Canada Jazz at CYHZ




Go Back


Latest METAR
Local Time

CYHZ 221100Z 21019G26KT 5SM -DZ BR SCT009 OVC015 18/17 A2977 RMK SF4SC4 SLP082 DENSITY ALT 1100FT
22/09/2018, 09:00:25

Description
Results
Air Canada Jazz Logo
Number of Pilots based at CYHZ
0 Pilots Based here
Number of Air Canada Jazz Flights Departed from CYHZ
2 Flights Departed
Number of Air Canada Jazz Flights Arrived at CYHZ
1 Flights Arrived
Number of Air Canada Jazz Schedules Departing from CYHZ
17 Schedules
Number of Air Canada Jazz Schedules Arriving at CYHZ
15 Schedules
Number of Air Canada Jazz Schedules Departing from CYHZ availible today
12 Schedules Today
Number of Air Canada Jazz Schedules Arriving at CYHZ availible today
10 Schedules Today
Average Landing Rate at CYHZ
-141 fpm
Air Canada Jazz Average Landing Rate at CYHZ
-47 fpm
Total Fuel Purchased at CYHZ by Air Canada Jazz
2,865.80 kgs / 6,317.94 lbs

Pilots Based at CYHZ


Pilot ID
Pilot Name
Pilot Rank
No. of Flights
No. of Flying Hours
There are no pilots assigned to this hub!   Will you be the first?
Content